Stündliche Wetter Barkowo

Heute, 28 Oktober, Mittwoch

Zeit Temperatur Niederschläge Wind Luftdruck Luftfeuchtigkeit
00:00 +8°C° 0 mm 2 m/S 752 mmHg 81%
01:00 +7°C° 0 mm 2 m/S 752 mmHg 82%
02:00 +7°C° 0 mm 3 m/S 752 mmHg 82%
03:00 +7°C° 0 mm 3 m/S 752 mmHg 82%
04:00 +7°C° 0 mm 3 m/S 751 mmHg 82%
05:00 +7°C° 0 mm 3 m/S 751 mmHg 82%
06:00 +7°C° 0 mm 3 m/S 752 mmHg 82%
07:00 +6°C° 0 mm 4 m/S 752 mmHg 81%
08:00 +7°C° 0 mm 4 m/S 752 mmHg 74%
09:00 +10°C° 0 mm 4 m/S 752 mmHg 66%
10:00 +12°C° 0 mm 5 m/S 752 mmHg 59%
11:00 +13°C° 0 mm 5 m/S 752 mmHg 56%
12:00 +13°C° 0 mm 4 m/S 752 mmHg 52%
13:00 +14°C° 0 mm 4 m/S 751 mmHg 49%
14:00 +13°C° 0 mm 4 m/S 752 mmHg 54%
15:00 +12°C° 0 mm 3 m/S 752 mmHg 59%
16:00 +12°C° 0 mm 3 m/S 752 mmHg 64%
17:00 +11°C° 0 mm 3 m/S 752 mmHg 67%
18:00 +10°C° 0 mm 3 m/S 752 mmHg 70%
19:00 +10°C° 0 mm 3 m/S 752 mmHg 73%
20:00 +10°C° 0 mm 3 m/S 753 mmHg 75%
21:00 +10°C° 0 mm 3 m/S 753 mmHg 76%
22:00 +9°C° 0 mm 3 m/S 753 mmHg 78%
23:00 +10°C° 0 mm 3 m/S 753 mmHg 77%

Morgen, 29 Oktober, Donnerstag

Zeit Temperatur Niederschläge Wind Luftdruck Luftfeuchtigkeit
00:00 +10°C° 0 mm 4 m/S 753 mmHg 77%
01:00 +10°C° 0 mm 4 m/S 753 mmHg 76%
02:00 +8°C° 0 mm 4 m/S 753 mmHg 77%
03:00 +8°C° 0 mm 4 m/S 753 mmHg 77%
04:00 +8°C° 0 mm 4 m/S 752 mmHg 78%
05:00 +8°C° 0 mm 4 m/S 752 mmHg 78%
06:00 +8°C° 0 mm 4 m/S 752 mmHg 78%
07:00 +8°C° 0 mm 4 m/S 753 mmHg 78%
08:00 +10°C° 0 mm 4 m/S 752 mmHg 75%
09:00 +10°C° 0 mm 5 m/S 752 mmHg 71%
10:00 +12°C° 0 mm 5 m/S 752 mmHg 68%
11:00 +12°C° 0.4 mm 5 m/S 752 mmHg 72%
12:00 +11°C° 0.4 mm 6 m/S 752 mmHg 75%
13:00 +10°C° 0.4 mm 6 m/S 752 mmHg 79%
14:00 +10°C° 0.9 mm 5 m/S 752 mmHg 79%
15:00 +9°C° 0.9 mm 5 m/S 752 mmHg 79%
16:00 +9°C° 0.9 mm 5 m/S 753 mmHg 79%
17:00 +8°C° 0 mm 5 m/S 753 mmHg 80%
18:00 +7°C° 0 mm 4 m/S 754 mmHg 81%
19:00 +7°C° 0 mm 4 m/S 755 mmHg 82%
20:00 +6°C° 0 mm 4 m/S 755 mmHg 83%
21:00 +6°C° 0 mm 4 m/S 756 mmHg 84%
22:00 +6°C° 0 mm 4 m/S 757 mmHg 85%
23:00 +6°C° 0 mm 4 m/S 757 mmHg 85%

übermorgen, 30 Oktober, Freitag

Zeit Temperatur Niederschläge Wind Luftdruck Luftfeuchtigkeit
00:00 +5°C° 0 mm 4 m/S 757 mmHg 85%
01:00 +5°C° 0 mm 4 m/S 757 mmHg 86%
02:00 +5°C° 0 mm 3 m/S 757 mmHg 87%
03:00 +5°C° 0 mm 3 m/S 757 mmHg 87%
04:00 +5°C° 0 mm 2 m/S 757 mmHg 88%
05:00 +5°C° 0 mm 3 m/S 757 mmHg 87%
06:00 +5°C° 0 mm 3 m/S 757 mmHg 86%
07:00 +5°C° 0 mm 3 m/S 756 mmHg 85%
08:00 +7°C° 0.6 mm 3 m/S 756 mmHg 87%
09:00 +7°C° 0.6 mm 3 m/S 756 mmHg 89%
10:00 +6°C° 0.6 mm 4 m/S 756 mmHg 91%
11:00 +7°C° 1.4 mm 4 m/S 755 mmHg 92%
12:00 +7°C° 1.4 mm 4 m/S 755 mmHg 94%
13:00 +8°C° 1.4 mm 4 m/S 754 mmHg 95%
14:00 +9°C° 1 mm 5 m/S 754 mmHg 94%
15:00 +10°C° 1 mm 6 m/S 754 mmHg 93%
16:00 +10°C° 1 mm 6 m/S 754 mmHg 93%
17:00 +11°C° 0.2 mm 6 m/S 754 mmHg 93%
18:00 +11°C° 0.2 mm 6 m/S 754 mmHg 93%
19:00 +11°C° 0.2 mm 6 m/S 754 mmHg 93%
20:00 +11°C° 0.3 mm 6 m/S 755 mmHg 93%
21:00 +11°C° 0.3 mm 6 m/S 755 mmHg 93%
22:00 +11°C° 0.3 mm 6 m/S 755 mmHg 93%
23:00 +11°C° 0.6 mm 6 m/S 755 mmHg 94%

31 Oktober, Samstag

Zeit Temperatur Niederschläge Wind Luftdruck Luftfeuchtigkeit
00:00 +11°C° 0.6 mm 6 m/S 756 mmHg 94%
01:00 +12°C° 0.6 mm 5 m/S 756 mmHg 94%
02:00 +12°C° 0.4 mm 5 m/S 757 mmHg 95%
03:00 +12°C° 0.4 mm 4 m/S 757 mmHg 95%
04:00 +12°C° 0.4 mm 4 m/S 757 mmHg 96%
05:00 +12°C° 0.2 mm 3 m/S 758 mmHg 96%
06:00 +12°C° 0.2 mm 3 m/S 758 mmHg 96%
07:00 +13°C° 0.2 mm 2 m/S 759 mmHg 96%
08:00 +13°C° 0.1 mm 2 m/S 759 mmHg 95%
09:00 +13°C° 0.1 mm 2 m/S 759 mmHg 93%
10:00 +13°C° 0.1 mm 2 m/S 760 mmHg 92%
11:00 +13°C° 0 mm 2 m/S 760 mmHg 90%
12:00 +13°C° 0 mm 2 m/S 760 mmHg 88%
13:00 +13°C° 0 mm 2 m/S 760 mmHg 87%
14:00 +13°C° 0 mm 2 m/S 760 mmHg 87%
15:00 +13°C° 0 mm 2 m/S 760 mmHg 87%
16:00 +13°C° 0 mm 2 m/S 760 mmHg 88%
17:00 +12°C° 0 mm 2 m/S 760 mmHg 89%
18:00 +11°C° 0 mm 3 m/S 760 mmHg 90%
19:00 +10°C° 0 mm 3 m/S 760 mmHg 92%
20:00 +10°C° 0 mm 3 m/S 760 mmHg 90%
21:00 +8°C° 0 mm 4 m/S 760 mmHg 89%
22:00 +8°C° 0 mm 4 m/S 760 mmHg 87%
23:00 +8°C° 0 mm 4 m/S 760 mmHg 85%

1 November, Sonntag

Zeit Temperatur Niederschläge Wind Luftdruck Luftfeuchtigkeit
00:00 +8°C° 0 mm 5 m/S 760 mmHg 83%
01:00 +7°C° 0 mm 5 m/S 760 mmHg 80%
02:00 +7°C° 0 mm 5 m/S 759 mmHg 81%
03:00 +7°C° 0 mm 5 m/S 759 mmHg 82%
04:00 +7°C° 0 mm 4 m/S 759 mmHg 83%
05:00 +7°C° 0 mm 4 m/S 759 mmHg 84%
06:00 +7°C° 0 mm 4 m/S 758 mmHg 86%
07:00 +7°C° 0 mm 4 m/S 758 mmHg 88%
08:00 +8°C° 0 mm 4 m/S 758 mmHg 84%
09:00 +10°C° 0 mm 5 m/S 758 mmHg 81%
10:00 +12°C° 0 mm 5 m/S 758 mmHg 78%
11:00 +13°C° 0 mm 5 m/S 758 mmHg 75%
12:00 +14°C° 0 mm 4 m/S 758 mmHg 72%
13:00 +15°C° 0 mm 4 m/S 757 mmHg 70%
14:00 +15°C° 0 mm 4 m/S 757 mmHg 72%
15:00 +14°C° 0 mm 4 m/S 757 mmHg 75%
16:00 +13°C° 0 mm 4 m/S 757 mmHg 77%
17:00 +13°C° 0 mm 4 m/S 757 mmHg 79%
18:00 +12°C° 0 mm 3 m/S 757 mmHg 82%
19:00 +11°C° 0 mm 3 m/S 757 mmHg 84%
20:00 +11°C° 0 mm 3 m/S 757 mmHg 84%
21:00 +10°C° 0 mm 3 m/S 757 mmHg 85%
22:00 +10°C° 0 mm 3 m/S 756 mmHg 85%
23:00 +10°C° 0 mm 3 m/S 756 mmHg 84%

2 November, Montag

Zeit Temperatur Niederschläge Wind Luftdruck Luftfeuchtigkeit
00:00 +10°C° 0 mm 3 m/S 756 mmHg 84%
01:00 +10°C° 0 mm 3 m/S 756 mmHg 83%
02:00 +10°C° 0 mm 3 m/S 756 mmHg 82%
03:00 +10°C° 0 mm 3 m/S 756 mmHg 81%
04:00 +10°C° 0 mm 3 m/S 756 mmHg 81%
05:00 +10°C° 0 mm 3 m/S 756 mmHg 79%
06:00 +10°C° 0 mm 3 m/S 756 mmHg 78%
07:00 +10°C° 0 mm 3 m/S 756 mmHg 77%
08:00 +12°C° 0 mm 4 m/S 756 mmHg 72%
09:00 +13°C° 0 mm 4 m/S 756 mmHg 68%
10:00 +14°C° 0 mm 4 m/S 756 mmHg 63%
11:00 +15°C° 0 mm 4 m/S 756 mmHg 61%
12:00 +17°C° 0 mm 4 m/S 756 mmHg 60%
13:00 +18°C° 0 mm 4 m/S 757 mmHg 58%
14:00 +17°C° 0 mm 4 m/S 756 mmHg 61%
15:00 +16°C° 0 mm 3 m/S 756 mmHg 64%
16:00 +14°C° 0 mm 3 m/S 756 mmHg 67%
17:00 +14°C° 0 mm 3 m/S 756 mmHg 68%
18:00 +13°C° 0 mm 3 m/S 757 mmHg 68%
19:00 +13°C° 0 mm 3 m/S 757 mmHg 69%
20:00 +13°C° 0 mm 3 m/S 757 mmHg 69%
21:00 +12°C° 0 mm 3 m/S 757 mmHg 70%
22:00 +12°C° 0 mm 3 m/S 757 mmHg 71%
23:00 +12°C° 0 mm 3 m/S 757 mmHg 71%
Mehr zeigen